Location: Malmö
(55.6090°N, 13.0007°E)
Time: 01:39:45
(UTC+01:00)

ISS - Pass Details

Date: 01 February 2021
Orbit: 417 x 422 km, 51.6° (Epoch: 06 March)

Event Time Altitude Azimuth Distance (km) Brightness Sun altitude
Rises 17:15:19 0° 264° (W) 2,374 1.8 -4.9°
Reaches altitude 10° 17:17:29 10° 257° (WSW) 1,509 0.8 -5.2°
Maximum altitude 17:20:42 41° 186° (S) 629 -2.6 -5.6°
Drops below altitude 10° 17:23:54 10° 115° (ESE) 1,510 -1.3 -6.0°
Enters shadow 17:25:33 - 109° (ESE) 2,161 -0.6 -6.3°
